Preview of NWS' New Version of Forecast
This preview is not operational and should not be used for support decisions.

Regional Weather Roundup (RWR)

Issued by National Weather Service (NWS)

                            
000
ASUS43 KDMX 210201
RWRIA 

WEATHER ROUNDUP FOR IOWA
NATIONAL WEATHER SERVICE DES MOINES IA
800 PM CST WED FEB 20 2019

NOTE: "FAIR" INDICATES FEW OR NO CLOUDS BELOW 12,000 FEET WITH NO
SIGNIFICANT WEATHER AND/OR OBSTRUCTIONS TO VISIBILITY.

* - THESE STATIONS ARE NOT NWS STATIONS...THUS NOT UNDER NWS
QUALITY CONTROL.  THEY ALSO DO NOT REPORT WEATHER SUCH 
AS PRECIPITATION OR FOG.  

IAZ001>003-012>014-020>022-031>034-043>046-210300-
   NORTHWEST IOWA
  
CITY           SKY/WX    TMP DP  RH WIND       PRES   REMARKS
CARROLL *      MOCLDY    18  14  86 SW14      29.81R WCI   4          
CHEROKEE *     CLEAR     14  12  91 CALM      29.79R                  
DENISON *      CLEAR     18  16  93 S5        29.83R WCI  11          
LE MARS *      MOCLDY    12  12 100 CALM      29.80R                  
ORANGE CITY *  CLEAR     12  10  92 W12       29.77R WCI  -2          
SHELDON *      CLEAR     10  10 100 W13       29.74R WCI  -5          
SIOUX CITY     CLEAR     15  11  83 W6        29.82R WCI   6          
SPENCER        CLEAR     16  10  77 W17       29.75R WCI   0          
STORM LAKE *   MOCLDY    19  16  86 W17       29.76R WCI   4          
$$
 
IAZ055>058-069>071-079>083-090>094-210300-
   SOUTHWEST IOWA
  
CITY           SKY/WX    TMP DP  RH WIND       PRES   REMARKS
ATLANTIC *     MOCLDY    19  18  93 SW8       29.85R WCI   9          
AUDUBON *      CLEAR     14  10  85 CALM      29.83R                  
CLARINDA *     CLEAR     21  16  79 SW9       29.90R WCI  11          
COUNCIL BLFS * CLEAR     23  21  93 W8        29.84R WCI  14          
CRESTON *      CLEAR     21  16  79 SW9       29.86R WCI  11          
HARLAN  *      CLEAR     14  12  92 SW9       29.84R WCI   2          
LAMONI         CLEAR     24  16  71 SW9       29.87R WCI  14          
RED OAK *      CLEAR     16  14  93 S7        29.87R WCI   6          
SHENANDOAH *   CLEAR     18  14  86 W7        29.89R WCI   8          
$$
 
IAZ047>049-059>061-072>074-084-210300-
   CENTRAL IOWA
  
CITY           SKY/WX    TMP DP  RH WIND       PRES   REMARKS
AMES           CLEAR     16  12  84 SW6       29.83R WCI   7          
ANKENY *       CLEAR     25  18  74 SW10      29.86R WCI  15          
BOONE *        CLEAR     21  18  86 W12       29.81R WCI   9          
CHARITON *     CLEAR     27  19  74 SW8G15    29.86R WCI  18          
DES MOINES     PTCLDY    21  16  81 SW9       29.85R WCI  11          
GRINNELL*      CLEAR     25  20  81 SW15      29.84R WCI  13          
KNOXVILLE *    CLEAR     27  21  80 SW8       29.86R WCI  18          
MARSHALLTOWN   CLEAR     22  18  85 SW16      29.81R WCI   8          
NEWTON *       CLEAR     25  19  80 SW15      29.84R WCI  12          
PELLA *        CLEAR     26  18  71 SW7       29.88R WCI  18          
PERRY *        FAIR      14  11  90 W10       29.83R WCI   1          
$$
 
IAZ004>006-015-016-023>025-035-036-210300-
   NORTH CENTRAL IOWA
  
CITY           SKY/WX    TMP DP  RH WIND       PRES   REMARKS
ALGONA *       PTCLDY    14  14 100 SW15      29.74R WCI  -1          
CLARION *      PTCLDY    16  12  86 SW14      29.79R WCI   1          
ESTHERVILLE    MOCLDY    13   9  84 W14       29.74R WCI  -2          
FORT DODGE *   CLEAR     18  14  84 SW12      29.80R WCI   5          
MASON CITY     PTCLDY    19  15  84 SW16      29.76R WCI   4          
FOREST CITY *  FAIR      19  16  86 W7        29.75R WCI  10          
IOWA FALLS *   FAIR      21  17  83 SW15      29.80R WCI   8          
$$

IAZ007>011-017>019-026>030-037>042-050>054-066-210300-
   NORTHEAST IOWA
  
CITY           SKY/WX    TMP DP  RH WIND       PRES   REMARKS
CEDAR RAPIDS   FAIR      27  21  78 W17       29.82R WCI  14          
CHARLES CITY * MOCLDY    23  18  80 W18G25    29.77R WCI   9          
CLINTON *      CLOUDY    33  27  78 W24       29.81R WCI  20          
DECORAH *      CLOUDY    27  23  86 W13G23    29.72R WCI  16          
DUBUQUE        CLOUDY    30  24  78 SW18      29.77R WCI  18          
OELWEIN *      MOCLDY    25  21  86 W20G28    29.78R WCI  11          
WATERLOO       FAIR      24  18  77 W16       29.80R WCI  11          
$$
 
IAZ064-065-067-068-078-210300-
   EAST CENTRAL IOWA
  
CITY           SKY/WX    TMP DP  RH WIND       PRES   REMARKS
DAVENPORT      CLOUDY    33  25  72 W22G31    29.84R WCI  21          
IOWA CITY      MOCLDY    31  23  72 W21G29    29.86R WCI  18          
MT. PLEASANT * CLEAR     32  27  80 W16       29.88R WCI  21          
MUSCATINE *    CLOUDY    34  23  64 SW18G24   29.86R WCI  23          
QUAD CITIES    CLOUDY    35  24  64 W20G32    29.83R WCI  24          
$$
 
IAZ062-063-075>077-085>089-095>099-210300-
   SOUTHEAST IOWA
  
CITY           SKY/WX    TMP DP  RH WIND       PRES   REMARKS
BURLINGTON     CLEAR     33  23  66 W10       29.87R WCI  25          
FAIRFIELD *    CLEAR     30  19  64 W14       29.86R WCI  20          
FORT MADISON * CLEAR     34  25  69 W9        29.89R WCI  26          
KEOKUK *       CLEAR     32  27  80 W12       29.89R WCI  23          
OSKALOOSA *    FAIR      24  18  80 W12       29.87R WCI  12          
OTTUMWA        CLEAR     28  19  69 W15       29.86R WCI  16          
WASHINGTON *   CLEAR     30  23  74 W15G23    29.87R WCI  19          
$$

ABBREVIATIONS USED IN REMARKS
   TC - TEMPERATURES IN CELSIUS
  WCI - WIND CHILL INDEX
   HX - HEAT INDEX
  VSB - VISIBILITY  
$$